This demonstration page uses our WeatherBlox Daily Observations layout. Learn more.

Left ArrowRight Arrow

39.12711, -84.51439

Hourly Observations for December 30, 2018

Temp ( °F °C ) Dew Point ( °F °C ) Humidity (%) Winds ( mph kmh ) Pressure ( in mb ) Visibility ( mi km ) Precip ( " mm )
12:23 am 00:23 Cloudy 35 1.7 27 -2.8 72 72 S 5 7 30.27 1025 10 16 0.00 0.00
12:53 am 00:53 Cloudy 35 1.7 28 -2.2 76 76 SSW 7 11 30.25 1024 10 16 0.00 0.00
1:53 am 01:53 Cloudy 35 1.7 28 -2.2 76 76 S 5 7 30.24 1024 10 16 0.00 0.00
2:53 am 02:53 Cloudy 36 2.2 27 -2.8 70 70 WNW 6 9 30.25 1024 10 16 0.00 0.00
3:53 am 03:53 Cloudy 34 1.1 27 -2.8 76 76 W 6 9 30.24 1024 10 16 0.00 0.00
4:53 am 04:53 Clear 32 0 27 -2.8 82 82 S 3 6 30.24 1024 10 16 0.00 0.00
5:53 am 05:53 Clear 30 -1.1 26 -3.3 85 85 SSW 6 9 30.24 1024 10 16 0.00 0.00
6:53 am 06:53 Clear 29 -1.7 26 -3.3 89 89 SSW 5 7 30.24 1024 10 16 0.00 0.00
7:53 am 07:53 Clear 30 -1.1 27 -2.8 88 88 Calm 30.25 1025 10 16 0.00 0.00
8:53 am 08:53 Sunny 30 -1.1 27 -2.8 88 88 Calm 30.27 1025 10 16 0.00 0.00
9:53 am 09:53 Sunny 33 0.6 29 -1.7 85 85 Calm 30.27 1025 10 16 0.00 0.00
10:53 am 10:53 Sunny 35 1.7 29 -1.7 78 78 S 5 7 30.26 1025 10 16 0.00 0.00
11:53 am 11:53 Sunny 37 2.8 29 -1.7 73 73 SW 3 6 30.22 1023 10 16 0.00 0.00
12:53 pm 12:53 Sunny 39 3.9 28 -2.2 65 65 SSW 6 9 30.20 1023 10 16 0.00 0.00
1:53 pm 13:53 Sunny 40 4.4 29 -1.7 65 65 SSW 3 6 30.18 1022 10 16 0.00 0.00
2:53 pm 14:53 Sunny 42 5.6 29 -1.7 60 60 S 6 9 30.17 1022 10 16 0.00 0.00
3:53 pm 15:53 Sunny 43 6.1 29 -1.7 58 58 S 5 7 30.16 1022 10 16 0.00 0.00
4:53 pm 16:53 Sunny 41 5 30 -1.1 65 65 SSW 7 11 30.17 1022 10 16 0.00 0.00
5:53 pm 17:53 Clear 38 3.3 29 -1.7 70 70 Calm 30.17 1022 10 16 0.00 0.00
6:53 pm 18:53 Clear 35 1.7 30 -1.1 82 82 ENE 5 7 30.16 1022 10 16 0.00 0.00
7:53 pm 19:53 Clear 35 1.7 31 -0.6 85 85 Calm 30.16 1021 10 16 0.00 0.00
8:53 pm 20:53 Clear 35 1.7 30 -1.1 82 82 Calm 30.14 1021 10 16 0.00 0.00
9:53 pm 21:53 Clear 34 1.1 31 -0.6 89 89 Calm 30.15 1021 10 16 0.00 0.00
10:53 pm 22:53 Clear 34 1.1 30 -1.1 85 85 Calm 30.14 1021 10 16 0.00 0.00
11:53 pm 23:53 Clear 34 1.1 31 -0.6 89 89 Calm 30.13 1020 10 16 0.00 0.00

Powered by AerisWeather